Weather History for KLAF - March, 2014

Change the Weather History Date:

Friday, March 7, 2014

  Actual Average Record
Temperature  
Mean Temperature 34 °F 37 °F  
Max Temperature 52 °F 46 °F 75 °F (1987)
Min Temperature 16 °F 28 °F 13 °F (1967)
Degree Days  
Heating Degree Days 31 28  
Month to date heating degree days 303 202  
Since 1 July heating degree days 5265 4536  
Cooling Degree Days 0 0  
Month to date cooling degree days 0 0  
Year to date cooling degree days 0 0  
Moisture  
Dew Point 23 °F    
Average Humidity 67    
Maximum Humidity 92    
Minimum Humidity 41    
Precipitation  
Precipitation 0.00 in 0.08 in 0.80 in (2009)
Month to date precipitation 0.18 0.58  
Year to date precipitation 3.52 4.20  
Sea Level Pressure  
Sea Level Pressure 30.02 in    
Wind  
Wind Speed 4 mph (SSW)    
Max Wind Speed 12 mph    
Max Gust Speed 16 mph    
Visibility 6 miles    
Events      
T = Trace of Precipitation, MM = Missing Value Source: NWS Daily Summary

Daily Weather History Graph

Daily Weather History Graph

Search for Another Location

Airport or City:

Trip Planner

Search our weather history database for the weather conditions in past years. The results will help you decide how hot, cold, wet, or windy it might be!

Date:

Astronomy

Mar. 07, 2014 Rise Set
Actual Time 7:12 AM EST 6:45 PM EST
Civil Twilight 6:44 AM EST 7:13 PM EST
Nautical Twilight 6:13 AM EST 7:44 PM EST
Astronomical Twilight 5:41 AM EST 8:16 PM EST
Moon 11:03 AM EST (3/7) 12:51 AM EST (3/7)
Length of Visible Light 12h 28m
Length of Day
11h 33m
Waxing Crescent, 42% of the Moon is Illuminated
Mar 7
Waxing Crescent
Mar 8
First Quarter
Mar 16
Full
Mar 23
Last Quarter
Mar 30
New

Hourly Weather History & Observations

Time (EST) Temp. Windchill Dew Point Humidity Pressure Visibility Wind Dir Wind Speed Gust Speed Precip Events Conditions
12:54 AM 21.9 °F 13.4 °F 19.0 °F 89% 30.11 in 5.0 mi ENE 6.9 mph - N/A   Clear
1:54 AM 21.9 °F 15.7 °F 18.0 °F 85% 30.10 in 5.0 mi NE 4.6 mph - N/A   Clear
2:54 AM 19.9 °F 14.9 °F 18.0 °F 92% 30.09 in 5.0 mi ENE 3.5 mph - N/A   Clear
3:54 AM 19.9 °F - 17.1 °F 89% 30.08 in 3.0 mi Calm Calm - N/A   Clear
4:54 AM 17.1 °F - 15.1 °F 92% 30.07 in 3.0 mi Calm Calm - N/A   Clear
5:54 AM 17.1 °F - 15.1 °F 92% 30.07 in 3.0 mi Calm Calm - N/A   Clear
6:19 AM 17.1 °F - 15.1 °F 92% 30.04 in 2.5 mi Calm Calm - N/A   Clear
6:34 AM 17.1 °F - 15.1 °F 92% 30.04 in 3.0 mi Calm Calm - N/A   Clear
6:50 AM 15.8 °F - 14.0 °F 93% 30.03 in 2.5 mi Calm Calm - N/A   Clear
6:54 AM 16.0 °F - 14.0 °F 92% 30.05 in 4.0 mi Calm Calm - N/A   Clear
7:54 AM 18.0 °F - 16.0 °F 92% 30.05 in 4.0 mi Calm Calm - N/A   Clear
8:54 AM 24.1 °F - 21.0 °F 88% 30.06 in 4.0 mi Calm Calm - N/A   Clear
9:01 AM 25.0 °F - 21.9 °F 88% 30.03 in 2.5 mi Calm Calm - N/A   Clear
9:11 AM 26.1 °F - 21.9 °F 84% 30.04 in 4.0 mi Calm Calm - N/A   Clear
9:54 AM 30.9 °F - 26.1 °F 82% 30.06 in 4.0 mi Calm Calm - N/A   Haze
10:54 AM 39.0 °F 36.8 °F 28.0 °F 65% 30.06 in 5.0 mi Variable 3.5 mph - N/A   Haze
11:54 AM 44.1 °F 40.8 °F 30.0 °F 58% 30.04 in 8.0 mi South 5.8 mph - N/A   Clear
12:54 PM 46.0 °F 42.5 °F 30.0 °F 54% 30.01 in 8.0 mi SSW 6.9 mph - N/A   Clear
1:54 PM 48.9 °F - 28.9 °F 46% 29.99 in 8.0 mi SW 10.4 mph - N/A   Clear
2:54 PM 50.0 °F - 28.0 °F 43% 29.97 in 10.0 mi Variable 5.8 mph - N/A   Clear
3:54 PM 51.1 °F - 28.9 °F 43% 29.95 in 10.0 mi SW 8.1 mph - N/A   Clear
4:54 PM 51.1 °F - 28.0 °F 41% 29.94 in 10.0 mi SW 8.1 mph - N/A   Clear
5:54 PM 48.9 °F - 28.9 °F 46% 29.94 in 10.0 mi SSW 5.8 mph - N/A   Clear
6:54 PM 46.0 °F 43.9 °F 28.0 °F 50% 29.94 in 10.0 mi SW 4.6 mph - N/A   Clear
7:54 PM 44.1 °F 41.5 °F 28.0 °F 53% 29.96 in 10.0 mi SW 4.6 mph - N/A   Clear
8:54 PM 42.1 °F 39.2 °F 28.0 °F 58% 29.97 in 10.0 mi West 4.6 mph - N/A   Scattered Clouds
9:54 PM 39.0 °F - 28.9 °F 67% 29.98 in 10.0 mi Calm Calm - N/A   Clear
10:54 PM 39.9 °F 37.8 °F 28.9 °F 65% 29.97 in 10.0 mi SSW 3.5 mph - N/A   Clear
11:54 PM 39.9 °F 37.8 °F 30.9 °F 70% 29.97 in 10.0 mi WSW 3.5 mph - N/A   Clear